FW9306 Weather Reports


Display with metric or nautical units.
time (UTC)temp
F
wind
direction
speed
MPH
gust
MPH
rain 1hr
in
rain 24hr
in
rain mn
in
humidity
%
barometer
mb
20260503055020 76 32 3.0 3.0 0.00 0.00 0.00 34 1012.5
20260503054516 76 119 1.0 1.0 0.00 0.00 0.00 33 1012.7
20260503054014 76 42 1.0 2.0 0.00 0.00 0.00 33 1012.7
20260503053512 76 150 2.0 2.0 0.00 0.00 0.00 33 1012.5
20260503053009 76 167 0.0 0.0 0.00 0.00 0.00 32 1012.7
20260503052506 76 154 2.0 2.0 0.00 0.00 0.00 33 1012.8
20260503052002 76 14 2.0 2.0 0.00 0.00 0.00 32 1012.8
20260503051458 76 6 3.0 3.0 0.00 0.00 0.00 32 1012.7
20260503050955 76 168 1.0 2.0 0.00 0.00 0.00 32 1012.7
20260503050451 76 179 0.0 0.0 0.00 0.00 0.00 31 1012.5
20260503045949 76 41 4.0 5.0 0.00 0.00 0.00 33 1012.5
20260503045446 76 2 3.0 3.0 0.00 0.00 0.00 32 1012.5
20260503044943 77 214 1.0 1.0 0.00 0.00 0.00 33 1012.2
20260503044440 75 359 5.0 5.0 0.00 0.00 0.00 33 1012.4
20260503043937 76 187 1.0 1.0 0.00 0.00 0.00 35 1012.4
20260503043433 76 153 0.0 1.0 0.00 0.00 0.00 36 1012.4
20260503042930 77 63 1.0 1.0 0.00 0.00 0.00 31 1012.0
20260503042427 77 20 1.0 1.0 0.00 0.00 0.00 31 1012.0
20260503041923 77 44 1.0 1.0 0.00 0.00 0.00 32 1012.1
20260503041420 77 174 0.0 0.0 0.00 0.00 0.00 31 1011.9
20260503040918 77 185 0.0 0.0 0.00 0.00 0.00 31 1011.7
20260503040415 78 136 1.0 1.0 0.00 0.00 0.00 30 1011.6
20260503035912 78 143 1.0 1.0 0.00 0.00 0.00 30 1011.5
20260503035409 78 133 1.0 2.0 0.00 0.00 0.00 30 1011.7
20260503034906 78 126 2.0 2.0 0.00 0.00 0.00 30 1011.4
20260503034404 78 79 2.0 2.0 0.00 0.00 0.00 30 1011.6
20260503033901 79 89 2.0 2.0 0.00 0.00 0.00 29 1011.6
20260503033358 78 56 4.0 5.0 0.00 0.00 0.00 29 1011.7
20260503032856 79 87 4.0 6.0 0.00 0.00 0.00 29 1011.5
20260503032355 79 84 5.0 6.0 0.00 0.00 0.00 28 1011.5
20260503031851 79 34 3.0 3.0 0.00 0.00 0.00 29 1011.4
20260503031349 79 57 3.0 5.0 0.00 0.00 0.00 29 1011.5
20260503030845 79 125 1.0 1.0 0.00 0.00 0.00 29 1011.5
20260503030342 79 112 2.0 2.0 0.00 0.00 0.00 28 1011.2
20260503025838 80 75 2.0 2.0 0.00 0.00 0.00 28 1011.1
20260503025336 80 93 2.0 2.0 0.00 0.00 0.00 28 1011.0
20260503024833 81 123 2.0 2.0 0.00 0.00 0.00 27 1011.0
20260503024329 81 126 2.0 2.0 0.00 0.00 0.00 27 1010.8
20260503023826 81 119 3.0 5.0 0.00 0.00 0.00 27 1011.0
20260503023324 81 104 3.0 5.0 0.00 0.00 0.00 26 1010.8
20260503022820 81 140 5.0 7.0 0.00 0.00 0.00 26 1011.0
20260503022320 82 175 3.0 5.0 0.00 0.00 0.00 26 1011.0
20260503021817 82 126 5.0 7.0 0.00 0.00 0.00 26 1010.8
20260503021313 82 140 5.0 8.0 0.00 0.00 0.00 26 1010.8
20260503020811 82 97 6.0 8.0 0.00 0.00 0.00 26 1011.0
20260503020309 82 104 6.0 7.0 0.00 0.00 0.00 26 1010.9
20260503015804 82 60 3.0 6.0 0.00 0.00 0.00 26 1010.7
20260503015305 82 137 6.0 7.0 0.00 0.00 0.00 25 1011.1
20260503014757 82 219 4.0 5.0 0.00 0.00 0.00 25 1011.1
20260503014255 83 142 0.0 1.0 0.00 0.00 0.00 25 1011.2
20260503013752 83 145 3.0 3.0 0.00 0.00 0.00 24 1010.8
20260503013250 83 156 1.0 1.0 0.00 0.00 0.00 25 1011.0
20260503012747 83 191 2.0 2.0 0.00 0.00 0.00 25 1010.9
20260503012244 83 146 1.0 1.0 0.00 0.00 0.00 25 1011.2
20260503011741 83 115 4.0 5.0 0.00 0.00 0.00 25 1010.8
20260503011238 84 161 0.0 0.0 0.00 0.00 0.00 23 1011.0
20260503010734 84 129 1.0 2.0 0.00 0.00 0.00 23 1011.4
20260503010231 84 92 3.0 3.0 0.00 0.00 0.00 23 1011.0
20260503005729 84 150 1.0 1.0 0.00 0.00 0.00 23 1011.1
20260503005226 84 221 2.0 2.0 0.00 0.00 0.00 23 1011.1
20260503004721 84 188 1.0 2.0 0.00 0.00 0.00 24 1010.9
20260503004220 84 134 4.0 5.0 0.00 0.00 0.00 23 1011.0
20260503003717 85 141 1.0 2.0 0.00 0.00 0.00 23 1011.0
20260503003214 85 177 2.0 3.0 0.00 0.00 0.00 23 1011.0
20260503002710 84 186 2.0 3.0 0.00 0.00 0.00 23 1010.8
20260503002208 85 103 5.0 7.0 0.00 0.00 0.00 23 1011.0
20260503001703 85 150 2.0 2.0 0.00 0.00 0.00 22 1010.8
20260503001200 86 120 2.0 3.0 0.00 0.00 0.00 22 1010.9
20260503000658 86 222 1.0 2.0 0.00 0.00 0.00 22 1010.8
20260503000155 86 161 4.0 5.0 0.00 0.00 0.00 22 1010.8
20260502235652 86 94 2.0 2.0 0.00 0.00 0.00 22 1011.0
20260502235150 85 150 3.0 3.0 0.00 0.00 0.00 23 1010.8
20260502234645 86 109 4.0 5.0 0.00 0.00 0.00 22 1011.0
20260502234143 86 89 5.0 7.0 0.00 0.00 0.00 22 1011.0
20260502233639 86 129 4.0 5.0 0.00 0.00 0.00 22 1010.8
20260502233136 86 119 6.0 6.0 0.00 0.00 0.00 22 1010.8
20260502232632 87 80 5.0 8.0 0.00 0.00 0.00 22 1010.7
20260502232130 86 175 2.0 2.0 0.00 0.00 0.00 21 1011.0
20260502231626 85 150 3.0 3.0 0.00 0.00 0.00 21 1010.9
20260502231124 84 249 2.0 2.0 0.00 0.00 0.00 22 1011.5
20260502230622 85 201 6.0 8.0 0.00 0.00 0.00 21 1011.1
20260502230120 87 248 2.0 2.0 0.00 0.00 0.00 20 1011.1
20260502225615 85 33 1.0 1.0 0.00 0.00 0.00 22 1011.2
20260502225113 85 196 9.0 10.0 0.00 0.00 0.00 21 1011.5
20260502224609 86 196 4.0 6.0 0.00 0.00 0.00 21 1011.5
20260502224106 86 249 1.0 1.0 0.00 0.00 0.00 21 1011.4
20260502223604 86 281 2.0 3.0 0.00 0.00 0.00 20 1011.2
20260502223102 86 15 3.0 3.0 0.00 0.00 0.00 20 1011.5
20260502222559 85 248 3.0 3.0 0.00 0.00 0.00 21 1011.5
20260502222055 86 357 4.0 5.0 0.00 0.00 0.00 20 1011.6
20260502221550 85 231 4.0 5.0 0.00 0.00 0.00 20 1011.7
20260502221048 87 208 6.0 9.0 0.00 0.00 0.00 20 1011.8
20260502220544 87 212 3.0 5.0 0.00 0.00 0.00 19 1012.0
20260502220041 87 191 3.0 5.0 0.00 0.00 0.00 20 1011.9
20260502215538 86 154 3.0 6.0 0.00 0.00 0.00 19 1011.7
20260502215035 87 184 1.0 2.0 0.00 0.00 0.00 19 1012.0
20260502214532 85 175 8.0 9.0 0.00 0.00 0.00 19 1012.1
20260502214029 84 186 3.0 5.0 0.00 0.00 0.00 20 1012.4
20260502213526 85 248 2.0 3.0 0.00 0.00 0.00 22 1012.4
20260502213024 86 267 4.0 5.0 0.00 0.00 0.00 24 1012.2
20260502212522 85 267 1.0 1.0 0.00 0.00 0.00 20 1012.3
20260502212020 84 65 2.0 2.0 0.00 0.00 0.00 20 1012.7
20260502211515 85 212 9.0 10.0 0.00 0.00 0.00 19 1012.7
20260502211013 84 232 6.0 7.0 0.00 0.00 0.00 22 1012.7
20260502210509 85 249 8.0 9.0 0.00 0.00 0.00 19 1012.5
20260502210007 85 229 6.0 7.0 0.00 0.00 0.00 21 1012.7
20260502205503 85 192 9.0 11.0 0.00 0.00 0.00 20 1012.7
20260502205000 86 178 5.0 7.0 0.00 0.00 0.00 19 1013.1
20260502204457 86 196 4.0 6.0 0.00 0.00 0.00 19 1013.2
20260502203955 86 201 7.0 9.0 0.00 0.00 0.00 19 1013.2
20260502203451 84 187 7.0 8.0 0.00 0.00 0.00 19 1013.2
20260502202948 85 137 6.0 7.0 0.00 0.00 0.00 18 1013.2
20260502202445 85 201 10.0 13.0 0.00 0.00 0.00 19 1013.3
20260502201943 87 236 9.0 9.0 0.00 0.00 0.00 17 1013.4
20260502201438 86 325 1.0 1.0 0.00 0.00 0.00 19 1013.2
20260502200935 87 227 2.0 2.0 0.00 0.00 0.00 18 1013.5
20260502200431 84 227 3.0 3.0 0.00 0.00 0.00 20 1013.4
20260502195929 85 262 3.0 3.0 0.00 0.00 0.00 19 1013.7
20260502195426 86 159 2.0 3.0 0.00 0.00 0.00 17 1013.7
20260502194922 84 226 5.0 8.0 0.00 0.00 0.00 20 1013.6
20260502194419 85 185 3.0 5.0 0.00 0.00 0.00 22 1013.8
20260502193915 86 133 4.0 7.0 0.00 0.00 0.00 22 1013.8
20260502193412 85 154 4.0 7.0 0.00 0.00 0.00 24 1013.8
20260502192907 85 155 6.0 7.0 0.00 0.00 0.00 24 1014.0
20260502192405 85 158 4.0 7.0 0.00 0.00 0.00 25 1013.7
20260502191902 85 200 11.0 14.0 0.00 0.00 0.00 26 1014.0
20260502191400 83 126 5.0 6.0 0.00 0.00 0.00 26 1014.1
20260502190857 85 109 6.0 7.0 0.00 0.00 0.00 25 1014.0
20260502190354 85 196 7.0 11.0 0.00 0.00 0.00 26 1014.2
20260502185850 83 186 3.0 5.0 0.00 0.00 0.00 26 1014.2
20260502185345 85 189 8.0 10.0 0.00 0.00 0.00 26 1014.4
20260502184843 84 261 6.0 9.0 0.00 0.00 0.00 27 1014.3
20260502184338 83 105 3.0 5.0 0.00 0.00 0.00 27 1014.7
20260502183835 83 150 6.0 9.0 0.00 0.00 0.00 27 1014.4
20260502183331 82 190 7.0 8.0 0.00 0.00 0.00 28 1014.7
20260502182826 83 186 9.0 11.0 0.00 0.00 0.00 27 1014.6
20260502182322 81 195 9.0 10.0 0.00 0.00 0.00 30 1014.5
20260502181819 82 196 6.0 8.0 0.00 0.00 0.00 28 1014.9
20260502181318 82 149 3.0 5.0 0.00 0.00 0.00 29 1015.0
20260502180815 82 234 11.0 13.0 0.00 0.00 0.00 29 1014.9
20260502180313 82 178 5.0 6.0 0.00 0.00 0.00 28 1014.9
20260502170231 79 155 1.0 1.0 0.00 0.00 0.00 30 1015.4
20260502164219 77 194 0.0 1.0 0.00 0.00 0.00 34 1015.3
20260502163714 77 284 2.0 2.0 0.00 0.00 0.00 34 1014.9
20260502163211 77 204 2.0 3.0 0.00 0.00 0.00 34 1015.3
20260502162708 76 217 3.0 3.0 0.00 0.00 0.00 35 1015.3
20260502162205 76 276 4.0 5.0 0.00 0.00 0.00 35 1015.4
20260502161702 75 343 3.0 3.0 0.00 0.00 0.00 36 1015.6
20260502161158 75 224 3.0 3.0 0.00 0.00 0.00 37 1015.4
20260502160657 76 184 3.0 3.0 0.00 0.00 0.00 36 1015.5
20260502160156 76 120 1.0 1.0 0.00 0.00 0.00 35 1015.3
20260502152115 74 102 2.0 3.0 0.00 0.00 0.00 36 1015.0
20260502151612 74 99 5.0 6.0 0.00 0.00 0.00 37 1015.0
20260502151109 73 85 3.0 5.0 0.00 0.00 0.00 39 1015.1
20260502150607 73 29 4.0 5.0 0.00 0.00 0.00 38 1015.1
20260502130451 60 177 0.0 1.0 0.00 0.00 0.00 55 1013.5
20260502123434 59 189 4.0 5.0 0.00 0.00 0.00 51 1013.1
20260502122931 59 190 1.0 1.0 0.00 0.00 0.00 50 1013.0
20260502122427 59 184 0.0 1.0 0.00 0.00 0.00 49 1012.9
20260502121926 59 150 1.0 1.0 0.00 0.00 0.00 48 1012.8
20260502121422 60 186 3.0 3.0 0.00 0.00 0.00 46 1012.9
20260502120920 60 185 0.0 0.0 0.00 0.00 0.00 45 1012.8
20260502120416 60 204 1.0 2.0 0.00 0.00 0.00 44 1012.9
20260502115913 60 195 1.0 1.0 0.00 0.00 0.00 42 1013.0
20260502115411 60 180 0.0 1.0 0.00 0.00 0.00 42 1012.9
20260502114906 60 181 1.0 1.0 0.00 0.00 0.00 41 1012.9
20260502114404 62 186 1.0 1.0 0.00 0.00 0.00 41 1012.8
20260502113900 61 149 1.0 1.0 0.00 0.00 0.00 40 1012.7
20260502113358 60 191 1.0 1.0 0.00 0.00 0.00 41 1012.9
20260502112856 59 199 1.0 2.0 0.00 0.00 0.00 43 1013.0
20260502112354 58 166 1.0 1.0 0.00 0.00 0.00 45 1013.0
20260502111851 58 133 1.0 1.0 0.00 0.00 0.00 44 1013.0
20260502111348 58 195 3.0 3.0 0.00 0.00 0.00 44 1012.9
20260502110846 58 195 5.0 5.0 0.00 0.00 0.00 44 1013.0
20260502110344 58 158 0.0 0.0 0.00 0.00 0.00 44 1012.9
20260502105841 59 209 0.0 0.0 0.00 0.00 0.00 44 1012.9
20260502105337 59 186 3.0 3.0 0.00 0.00 0.00 43 1013.1
20260502104835 59 194 3.0 3.0 0.00 0.00 0.00 43 1012.9
20260502104332 59 183 3.0 3.0 0.00 0.00 0.00 42 1013.0
20260502103829 59 174 0.0 1.0 0.00 0.00 0.00 42 1012.9
20260502103327 60 216 1.0 1.0 0.00 0.00 0.00 41 1012.8
20260502102824 59 184 3.0 5.0 0.00 0.00 0.00 41 1012.7
20260502102320 59 179 3.0 5.0 0.00 0.00 0.00 43 1012.9
20260502101818 59 182 3.0 3.0 0.00 0.00 0.00 43 1012.4
20260502101316 59 177 3.0 3.0 0.00 0.00 0.00 43 1012.5
20260502100814 59 199 1.0 1.0 0.00 0.00 0.00 42 1012.5
20260502100313 60 169 3.0 3.0 0.00 0.00 0.00 42 1012.5
20260502091247 61 168 1.0 1.0 0.00 0.00 0.00 38 1012.3
20260502090744 61 166 1.0 1.0 0.00 0.00 0.00 38 1012.5
20260502090241 61 207 1.0 1.0 0.00 0.00 0.00 37 1012.5
20260502071142 64 188 1.0 2.0 0.00 0.00 0.00 35 1012.8
20260502070640 64 143 2.0 2.0 0.00 0.00 0.00 35 1012.7
20260502070137 64 152 1.0 1.0 0.00 0.00 0.00 35 1012.5
20260502065635 64 187 1.0 1.0 0.00 0.00 0.00 35 1012.9
20260502065132 64 177 0.0 1.0 0.00 0.00 0.00 35 1012.8
20260502064631 65 205 1.0 1.0 0.00 0.00 0.00 34 1012.9
20260502064128 67 176 1.0 1.0 0.00 0.00 0.00 34 1012.7
20260502063626 67 129 1.0 1.0 0.00 0.00 0.00 33 1012.7
20260502063123 66 120 1.0 1.0 0.00 0.00 0.00 33 1012.5
20260502062620 69 206 2.0 2.0 0.00 0.00 0.00 32 1012.5
20260502062118 68 133 2.0 2.0 0.00 0.00 0.00 31 1012.3
20260502061616 69 207 1.0 1.0 0.00 0.00 0.00 31 1012.2
20260502061113 69 166 1.0 1.0 0.00 0.00 0.00 30 1012.3
20260502060613 68 154 1.0 2.0 0.00 0.00 0.00 31 1012.0